Total_Precipitation_Accumulation
2.43 2.65 3.36 3.17 2.91 2.79 2.69 2.59 2.41 2.38 2.47 2.62 2.62 2.63 2.68 2.74 2.85 2.96 3.09 3.14 3.34 3.62 3.71 3.69 3.44 3.44 3.42 3.42 3.13 2.69 2.36 2.29 2.15 1.96 1.79 1.77 1.82 2.01 2.42 2.60 2.40 1.80 1.77
2.06 2.45 3.05 2.95 2.76 2.66 2.55 2.48 2.34 2.28 2.48 2.64 2.67 2.63 2.71 2.69 2.78 2.79 2.94 3.29 3.57 3.68 3.68 3.37 3.18 3.28 3.30 3.30 2.95 2.60 2.35 2.30 2.18 2.17 2.02 1.74 1.93 2.29 2.65 2.72 2.69 1.91 1.83
1.73 2.13 2.34 2.62 2.53 2.47 2.43 2.50 2.75 2.73 2.71 2.64 2.63 2.56 2.59 2.61 2.69 2.78 3.03 3.28 3.48 3.36 3.28 3.14 3.12 3.05 2.97 2.90 2.69 2.46 2.33 2.20 2.25 2.42 2.54 1.77 1.60 2.31 2.60 2.62 2.42 1.83 1.65
1.58 1.89 2.02 2.35 2.30 2.12 2.28 2.52 2.81 2.94 2.91 2.81 2.67 2.51 2.47 2.59 2.75 2.88 2.86 2.96 3.05 2.89 2.77 2.87 3.04 2.96 2.82 2.58 2.44 2.41 2.36 2.32 2.52 2.84 2.84 1.98 1.54 1.95 2.34 2.28 2.01 1.70 1.52
1.55 1.83 2.13 2.24 2.08 1.98 2.11 2.41 2.67 2.82 2.81 2.76 2.60 2.51 2.59 2.56 2.60 2.66 2.67 2.78 2.80 2.82 2.73 2.68 2.82 2.93 2.79 2.54 2.44 2.47 2.44 2.46 2.78 2.81 2.40 2.27 2.18 2.17 2.22 2.14 1.94 1.73 1.60
1.25 1.55 1.91 2.16 2.04 2.00 2.24 2.39 2.44 2.50 2.48 2.44 2.44 2.51 2.52 2.45 2.51 2.48 2.44 2.48 2.69 2.70 2.46 2.40 2.67 2.95 2.89 2.60 2.44 2.63 2.74 2.83 2.72 2.19 2.03 2.03 2.12 2.27 2.21 2.27 2.20 1.96 1.82
1.12 1.37 1.70 2.07 2.01 1.98 2.08 2.20 2.31 2.46 2.44 2.36 2.34 2.26 2.33 2.43 2.44 2.34 2.16 2.20 2.40 2.40 2.24 2.25 2.54 2.77 2.78 2.66 2.60 2.92 2.95 2.97 2.46 2.00 1.91 2.12 1.99 1.92 2.10 2.33 2.50 2.28 1.96
0.95 1.19 1.44 1.84 1.93 1.86 1.87 2.00 2.25 2.38 2.40 2.29 2.10 2.00 2.09 2.19 2.15 2.07 1.99 2.15 2.16 2.06 2.07 2.17 2.46 2.35 2.49 2.75 2.89 3.19 3.07 2.59 1.96 1.85 1.77 1.85 1.55 1.66 2.00 2.24 2.38 2.25 1.97
0.82 0.95 1.25 1.54 1.77 1.82 1.91 2.00 2.08 2.03 1.95 1.87 1.77 1.85 2.02 2.11 1.99 1.91 1.92 2.04 1.99 2.02 2.12 2.31 2.47 2.25 2.44 2.82 3.00 3.11 2.93 2.40 1.85 1.88 1.68 1.85 1.75 1.92 2.21 2.30 2.24 2.23 2.00
1.04 1.07 1.25 1.39 1.53 1.65 1.76 1.91 1.96 1.94 1.79 1.70 1.69 1.76 1.84 1.94 1.94 1.84 1.84 2.03 1.96 1.98 2.04 2.28 2.40 2.29 2.58 2.84 2.97 2.92 2.82 2.27 1.73 1.73 1.77 1.63 1.79 2.18 2.52 2.52 2.42 2.35 2.22
1.35 1.35 1.32 1.32 1.34 1.47 1.55 1.71 1.91 1.90 1.83 1.77 1.84 1.89 1.90 1.92 1.74 1.76 1.89 2.24 2.21 2.26 2.26 2.41 2.55 2.76 2.85 2.72 2.88 2.87 2.59 2.14 2.04 1.95 1.92 1.69 1.93 2.43 2.74 2.68 2.62 2.64 2.48
1.49 1.54 1.56 1.48 1.31 1.37 1.44 1.70 1.80 1.57 1.69 1.82 1.98 1.86 1.85 1.96 1.97 1.85 2.24 2.55 2.69 2.85 2.87 2.96 3.16 3.00 2.73 2.77 3.28 3.25 2.43 2.28 2.11 2.10 2.24 2.09 2.31 2.85 3.12 2.89 2.72 2.78 2.66
1.67 1.47 1.58 1.80 1.72 1.68 1.78 1.64 1.63 1.68 1.88 1.91 1.78 1.76 1.95 1.74 1.65 1.87 2.19 2.53 2.78 3.06 3.26 3.47 3.61 3.27 3.21 3.45 3.65 3.28 2.54 2.22 2.17 2.03 2.32 2.41 2.60 3.14 3.55 3.30 3.06 3.03 2.94
1.88 1.59 1.57 1.76 2.00 1.97 1.85 1.73 1.65 1.62 1.73 1.81 1.93 1.85 2.00 1.98 1.98 2.19 2.65 2.83 3.06 3.16 3.61 3.69 4.08 3.86 3.52 3.28 3.33 3.17 2.78 2.60 2.35 2.43 2.70 2.34 2.51 3.10 3.72 3.73 3.54 3.34 3.15
2.14 1.93 1.84 1.76 1.96 2.02 2.04 1.93 1.72 1.79 1.79 1.97 2.09 2.07 2.14 2.25 2.54 2.84 2.98 3.33 3.26 3.28 3.59 4.03 4.04 4.31 4.29 4.12 3.83 3.45 3.31 3.04 2.70 2.76 2.85 2.72 2.65 2.94 3.58 4.06 3.98 3.72 3.37
2.52 2.37 2.11 1.89 1.91 2.03 2.12 2.17 2.16 2.09 2.28 2.32 2.40 2.43 2.58 2.79 3.12 3.46 3.53 3.69 3.51 3.50 3.93 4.24 4.30 4.85 4.75 4.47 3.95 3.65 3.42 3.28 2.97 2.82 2.98 3.10 2.74 2.68 3.18 3.99 4.33 4.17 3.94
2.72 2.78 2.65 2.45 2.43 2.54 2.81 2.80 2.57 2.64 2.70 2.80 2.93 2.96 2.99 3.13 3.57 3.89 3.88 3.80 3.81 3.82 4.18 4.45 4.56 4.66 4.37 4.16 4.00 3.82 3.64 3.39 2.96 2.94 2.96 3.15 2.97 2.75 3.06 3.54 4.05 4.25 4.39
2.81 3.20 3.30 3.06 3.19 3.35 3.61 3.63 3.32 3.26 3.20 3.22 3.17 3.19 3.18 3.32 3.64 4.16 3.96 3.79 4.17 4.03 4.29 4.89 4.90 4.73 4.66 4.38 4.15 3.82 3.60 3.44 2.92 2.83 2.85 3.08 3.41 2.94 3.05 3.45 3.73 3.89 4.50
2.97 3.48 3.73 3.84 4.00 4.02 4.13 4.16 4.03 3.85 3.69 3.41 3.40 3.38 3.26 3.29 3.46 3.91 3.79 3.90 3.99 4.33 4.50 4.21 4.86 4.94 4.75 4.44 3.78 3.57 3.19 3.06 2.98 2.69 2.85 2.93 3.30 3.14 3.13 3.18 3.50 3.70 4.43
3.28 3.71 4.25 4.55 4.69 4.46 4.40 4.40 4.18 3.87 3.69 3.49 3.45 3.43 3.23 3.27 3.34 3.86 3.72 3.74 3.83 4.29 4.43 4.39 4.83 4.77 4.44 4.37 3.46 3.25 3.08 2.67 2.65 2.71 2.58 2.80 3.04 2.71 2.91 3.20 3.64 3.26 3.64
3.77 4.06 4.38 4.89 5.18 5.05 5.07 4.96 4.79 4.46 4.26 3.86 3.41 3.05 3.00 3.02 3.28 3.80 3.49 3.90 3.80 4.01 4.13 4.07 4.42 4.54 4.14 4.17 4.13 3.65 2.91 2.45 2.41 2.39 2.44 2.67 2.69 2.79 3.39 3.91 4.06 3.94 3.76
3.58 4.10 4.46 4.51 4.49 4.36 4.58 4.97 5.19 5.11 4.57 3.94 3.54 3.39 3.01 2.96 3.12 3.32 3.62 3.56 3.61 3.82 3.82 3.86 4.22 4.18 3.74 3.87 4.14 4.21 3.44 3.08 2.53 1.97 2.30 2.46 2.57 2.94 3.19 3.40 3.81 4.19 4.32
3.01 3.55 3.71 3.61 3.57 3.46 3.61 4.02 4.31 4.57 4.33 4.03 3.71 3.44 3.03 2.92 2.93 3.07 3.32 3.35 3.38 3.24 3.47 3.69 3.67 3.72 3.66 3.62 3.69 4.14 3.82 3.39 2.86 2.26 2.11 2.21 2.56 2.85 2.87 3.11 3.21 3.55 3.86
2.16 2.41 2.63 2.86 2.98 2.99 3.05 3.27 3.49 3.76 3.80 3.76 3.69 3.36 3.01 2.71 2.68 2.83 2.93 2.93 2.99 2.93 3.21 2.93 3.03 3.39 3.65 3.51 3.43 3.38 3.44 3.57 3.45 2.77 2.27 2.16 2.42 2.60 2.61 2.58 2.87 3.30 3.43
1.90 2.15 2.37 2.67 2.84 2.92 2.90 2.98 3.20 3.52 3.57 3.40 3.27 3.33 3.10 2.81 2.54 2.49 2.69 2.77 2.76 2.68 2.77 2.82 3.16 3.13 3.27 3.30 3.31 3.30 3.41 3.43 3.26 3.08 2.70 2.57 2.51 2.23 2.22 2.39 2.65 2.99 3.18
1.73 1.98 2.22 2.46 2.48 2.59 2.65 2.65 2.72 2.93 3.10 2.97 2.82 2.83 2.70 2.58 2.46 2.37 2.45 2.64 2.55 2.51 2.63 2.74 2.86 2.86 2.95 3.06 3.06 3.07 3.33 3.21 3.14 3.26 2.92 2.74 2.65 2.30 2.24 2.32 2.47 2.74 2.87